DMSP 5D-2 F13 DEB, 40414

Orbit data source: Space-Track

DMSP 5D-2 F13 DEB, 40414 is space debris in SSO originally from a launch on Fri, 24 Mar 1995 UTC launched from the Air Force Western Test Range (AFWTR). Debris objects in space refer to the collection of defunct objects orbiting the Earth. Examples of debris include non-operational satellites, rocket bodies, and fragments generated from explosions, collisions, or faulty payload assembly.

Loading next visibility...
DMSP 5D-2 F13 DEB details
Identifier
40414, 1995-015AB
Orbit
SSO
Last TLE update1 day ago
Origin
Flag of USUSAF SMC (US)
ManufacturerUnknown
MissionSpacecraft
Bus & MotorUnknown
MassUnknown
Launch date (UTC)
1995-03-24 (30 years ago)
Launch vehicleUnknown
Launch site
Air Force Western Test Range (AFWTR)
Object type
Payload
Rocket body
Debris
Shape & HBRUnknown
Radar Cross SectionSmall (<0.1 m²)

Expand to show TLE details & history

TLE from 1 day ago
0 DMSP 5D-2 F13 DEB
1 40414U 95015AB  24360.34301378  .00006572  00000-0  26145-2 0  9997
2 40414  98.6701  20.0928 0012434  68.0209 292.2292 14.28934693510212
Epoch: 2024-12-25T08:13Z
Definitive object data (Epoch: 2024-12-25T08:13:56.39Z)
Latitude-0.00009°
Longitude162.26973°
Altitude794.856 km
Speed7.458 km/s
True Right ascension01h 20m 22s
True Declination0° 00' 00"
Sunlit
Object was in daylight at TLE epoch
Visualization TLE readout
Latitude-64.56606°
Longitude-178.02986°
Altitude825.643 km
Speed7.436 km/s
Apparent Right ascension23h 50m 34s
Apparent Declination-57° 27' 33"
Sunlit
Object is in daylight
Visualization observer readout
Local Sidereal Time10:10:00
Azimuth214.37° SW
Elevation-66.122°
Doppler factor1
Orbital elements
Apogee altitude801.355 km
Perigee altitude783.523 km
Semi-major axis7,170.576 km
Eccentricity0.0012434
Inclination98.6701°
RAAN20.0928°
Arg. of periapsis68.0209°
True anomaly292.09723°
Mean anomaly292.2292°
Eccentric anomaly292.16322°
Mean motion3.57447 °/min
BSTAR0.0026145
Orbital period100.71 mins
Loading maneuver chart data...

DMSP 5D-2 F13 DEB Visibility forecast

Observer location: undefined°, undefined

Span
Click to sort rows by Start time (UTC) header in descending order
Start Az.
Max El. time (UTC)
Max El. Az.
Max El.
End time (UTC)
End Az.
7 mins2024-12-26 13:23:46.124Z44.822° NE2024-12-26 13:27:46.124Z96.85° ESE20.572°2024-12-26 13:30:46.124Z137.552° SSE
8 mins2024-12-26 15:03:46.124Z353.248° N2024-12-26 15:07:46.124Z275.903° WNW33.801°2024-12-26 15:11:46.124Z221.704° SW
7 mins2024-12-27 00:42:46.124Z120.389° SE2024-12-27 00:45:46.124Z72.572° E27.956°2024-12-27 00:49:46.124Z10.764° NNE
7 mins2024-12-27 02:22:46.124Z217.649° SW2024-12-27 02:25:46.124Z269.445° W26.063°2024-12-27 02:29:46.124Z322.759° NNW
|